Regional Weather Roundup
Issued by NWS Kansas City/Pleasant Hill, MO

Home | Current Version | Previous Version | Graphics & Text | Print | Product List | Glossary Off
Versions: 1 2 3 4 5 6 7 8 9 10 11 12 13 14 15 16 17 18 19 20 21 22 23 24 25 26 27

000
ASUS43 KEAX 250410
RWREAX

WEATHER ROUNDUP FOR EASTERN KANSAS AND NORTHWEST MISSOURI
NATIONAL WEATHER SERVICE KANSAS CITY/PLEASANT HILL MO
1100 PM CDT FRI MAR 24 2017

KSZ040-057-103>105-MOZ028-029-037-043-250500-
...KANSAS CITY METROPOLITAN AREA...

CITY           SKY/WX    TMP DP  RH WIND       PRES   REMARKS
K.C. INTL      CLOUDY    57  56  96 N6        29.80F
K.C. DOWNTOWN  CLOUDY    60  57  89 CALM      29.79F
LEES SUMMIT    CLOUDY    57  57 100 E6        29.80F
OLATHE - IXD   CLOUDY    58  54  86 W7        29.81F
OLATHE - OJC   CLOUDY    56  56 100 E5        29.79F
LAWRENCE       CLOUDY    56  55  97 NW7       29.80F

$$

MOZ001>008-011>017-020>025-030>033-038>040-044>046-053-054-250500-
...NORTHERN AND CENTRAL MISSOURI...

CITY           SKY/WX    TMP DP  RH WIND       PRES   REMARKS
ST. JOSEPH     CLOUDY    52  51  97 N24       29.84F
WARRENSBURG    CLOUDY    57  52  82 SE3       29.79R
WHITEMAN AFB   MOCLDY    58  55  88 SW12      29.80F
CLINTON        MOCLDY    57  46  67 S7        29.82R
SEDALIA        CLOUDY    60  48  64 SE22G30   29.80F
WARSAW         NOT AVBL
CHILLICOTHE      N/A     58  57  97 E6        29.85F
KIRKSVILLE     CLOUDY    55  55 100 E7        29.89F

$$

MOZ041-047>049-056>058-063>065-088>090-097-250500-
...EASTERN AND SOUTHERN MISSOURI...

CITY           SKY/WX    TMP DP  RH WIND       PRES   REMARKS
ST. LOUIS INTL CLOUDY    69  57  65 SE15G22   29.94F
SPIRIT OF STL  MOCLDY    69  58  67 SE8G18    29.92S
COLUMBIA       LGT RAIN  57  57 100 SE10      29.91F FOG
JEFFERSON CITY RAIN      60  57  89 SE8       29.91F FOG
ROLLA          HVY RAIN  57  57 100 SW10      29.94R FOG
OSAGE BEACH    LGT RAIN N/A N/A N/A S8        29.93S
SPRINGFIELD    LGT RAIN  56  52  86 SE25      29.83F
JOPLIN         MOCLDY    57  54  89 SE8       29.79F
WEST PLAINS    RAIN      61  58  90 S6        29.93F FOG

$$

IAZ060-094-KSZ022-034>040-054-083-096-NEZ052-066-093-250500-
...KANSAS...SOUTHEAST NEBRASKA AND IOWA...

CITY           SKY/WX    TMP DP  RH WIND       PRES   REMARKS
TOPEKA         LGT RAIN  54  54 100 N20G30    29.80F
MANHATTAN      CLOUDY    47  44  90 N9G22     29.87F
EMPORIA        CLOUDY    51  51 100 NW10      29.83F
CHANUTE        RAIN      53  49  86 NW16G31   29.84R
WICHITA        LGT RAIN  52  49  89 N13       29.86R
OMAHA          LGT RAIN  42  38  85 N18       30.00S WCI  34
LINCOLN        LGT RAIN  42  40  92 N15       30.01F WCI  34
FALLS CITY     LGT RAIN  46  32  58 N10       29.90R
LAMONI         LGT RAIN  47  46  97 NE18      29.91S FOG
DES MOINES     CLOUDY    44  42  93 NE18G26   29.97F

$$





USA.gov is the U.S. government's official web portal to all federal, state and local government web resources and services.